| time (UTC) | temp F | wind direction | speed knots | gust knots | rain 1hr in | rain 24hr in | rain mn in | humidity % | barometer mb |
| 20260901184914 | 95 | 180 | 0.9 | 3.5 | 0.00 | 0.00 | 0.00 | 31 | 1013.8 |
| 20260901184410 | 95 | 186 | 7.8 | 7.8 | 0.00 | 0.00 | 0.00 | 32 | 1013.8 |
| 20260901183905 | 96 | 209 | 0.0 | 5.2 | 0.00 | 0.00 | 0.00 | 31 | 1013.9 |
| 20260901183405 | 94 | 166 | 6.1 | 7.8 | 0.00 | 0.00 | 0.00 | 32 | 1014.2 |
| 20260901182901 | 94 | 160 | 6.1 | 7.8 | 0.00 | 0.00 | 0.00 | 33 | 1014.4 |
| 20260901182355 | 94 | 169 | 2.6 | 7.0 | 0.00 | 0.00 | 0.00 | 34 | 1014.4 |
| 20260901181850 | 93 | 190 | 4.3 | 4.3 | 0.00 | 0.00 | 0.00 | 34 | 1014.6 |
| 20260901181345 | 94 | 197 | 2.6 | 4.3 | 0.00 | 0.00 | 0.00 | 34 | 1014.5 |
| 20260901180844 | 93 | 235 | 1.7 | 6.1 | 0.00 | 0.00 | 0.00 | 35 | 1014.4 |
| 20260901180343 | 93 | 194 | 2.6 | 5.2 | 0.00 | 0.00 | 0.00 | 35 | 1014.6 |
| 20260901175842 | 92 | 177 | 4.3 | 7.0 | 0.00 | 0.00 | 0.00 | 35 | 1014.8 |
| 20260901175337 | 93 | 135 | 1.7 | 6.1 | 0.00 | 0.00 | 0.00 | 35 | 1014.9 |
| 20260901174832 | 93 | 90 | 1.7 | 5.2 | 0.00 | 0.00 | 0.00 | 36 | 1015.0 |
| 20260901174328 | 92 | 243 | 3.5 | 5.2 | 0.00 | 0.00 | 0.00 | 37 | 1014.9 |
| 20260901173823 | 91 | 150 | 1.7 | 7.0 | 0.00 | 0.00 | 0.00 | 38 | 1014.9 |
| 20260901173318 | 91 | 202 | 3.5 | 4.3 | 0.00 | 0.00 | 0.00 | 38 | 1014.9 |
| 20260901172815 | 91 | 192 | 0.9 | 7.0 | 0.00 | 0.00 | 0.00 | 38 | 1015.1 |
| 20260901172314 | 91 | 189 | 1.7 | 10.4 | 0.00 | 0.00 | 0.00 | 39 | 1014.9 |
| 20260901171812 | 90 | 135 | 2.6 | 6.1 | 0.00 | 0.00 | 0.00 | 41 | 1015.1 |
| 20260901171311 | 89 | 180 | 4.3 | 9.6 | 0.00 | 0.00 | 0.00 | 41 | 1015.4 |
| 20260901170810 | 89 | 146 | 1.7 | 7.0 | 0.00 | 0.00 | 0.00 | 41 | 1015.3 |
| 20260901170305 | 90 | 171 | 6.1 | 7.0 | 0.00 | 0.00 | 0.00 | 40 | 1015.3 |
| 20260901165803 | 89 | 183 | 2.6 | 7.8 | 0.00 | 0.00 | 0.00 | 42 | 1015.5 |
| 20260901165258 | 88 | 214 | 4.3 | 7.8 | 0.00 | 0.00 | 0.00 | 43 | 1015.3 |
| 20260901164755 | 89 | 164 | 2.6 | 6.1 | 0.00 | 0.00 | 0.00 | 42 | 1015.4 |
| 20260901164250 | 88 | 179 | 5.2 | 8.7 | 0.00 | 0.00 | 0.00 | 42 | 1015.4 |
| 20260901163745 | 89 | 225 | 4.3 | 5.2 | 0.00 | 0.00 | 0.00 | 42 | 1015.5 |
| 20260901163245 | 88 | 120 | 1.7 | 5.2 | 0.00 | 0.00 | 0.00 | 44 | 1015.4 |
| 20260901162740 | 88 | 194 | 4.3 | 5.2 | 0.00 | 0.00 | 0.00 | 43 | 1015.4 |
| 20260901162239 | 87 | 135 | 2.6 | 5.2 | 0.00 | 0.00 | 0.00 | 45 | 1015.6 |
| 20260901161738 | 86 | 235 | 0.0 | 6.1 | 0.00 | 0.00 | 0.00 | 46 | 1015.3 |
| 20260901161233 | 86 | 191 | 4.3 | 7.0 | 0.00 | 0.00 | 0.00 | 46 | 1015.5 |
| 20260901160729 | 86 | 206 | 2.6 | 6.1 | 0.00 | 0.00 | 0.00 | 47 | 1015.3 |
| 20260901160225 | 86 | 144 | 1.7 | 5.2 | 0.00 | 0.00 | 0.00 | 47 | 1015.3 |
| 20260901155723 | 86 | 201 | 3.5 | 6.1 | 0.00 | 0.00 | 0.00 | 47 | 1015.3 |
| 20260901155218 | 85 | 214 | 4.3 | 7.8 | 0.00 | 0.00 | 0.00 | 48 | 1015.4 |
| 20260901154714 | 84 | 172 | 1.7 | 6.1 | 0.00 | 0.00 | 0.00 | 49 | 1015.5 |
| 20260901154208 | 84 | 186 | 0.9 | 11.3 | 0.00 | 0.00 | 0.00 | 49 | 1015.3 |
| 20260901153704 | 84 | 158 | 5.2 | 9.6 | 0.00 | 0.00 | 0.00 | 50 | 1015.6 |
| 20260901153157 | 84 | 156 | 3.5 | 5.2 | 0.00 | 0.00 | 0.00 | 49 | 1015.3 |
| 20260901152652 | 84 | 152 | 3.5 | 7.0 | 0.00 | 0.00 | 0.00 | 51 | 1015.4 |
| 20260901152151 | 83 | 227 | 5.2 | 7.8 | 0.00 | 0.00 | 0.00 | 52 | 1015.4 |
| 20260901151647 | 82 | 179 | 6.1 | 7.8 | 0.00 | 0.00 | 0.00 | 53 | 1015.7 |
| 20260901151146 | 82 | 188 | 6.1 | 13.0 | 0.00 | 0.00 | 0.00 | 53 | 1015.6 |
| 20260901150645 | 82 | 162 | 3.5 | 12.2 | 0.00 | 0.00 | 0.00 | 53 | 1015.6 |
| 20260901150143 | 82 | 194 | 2.6 | 7.8 | 0.00 | 0.00 | 0.00 | 53 | 1015.4 |
| 20260901145641 | 82 | 192 | 4.3 | 11.3 | 0.00 | 0.00 | 0.00 | 53 | 1015.3 |
| 20260901145136 | 82 | 190 | 4.3 | 10.4 | 0.00 | 0.00 | 0.00 | 54 | 1015.5 |
| 20260901144632 | 82 | 194 | 4.3 | 7.8 | 0.00 | 0.00 | 0.00 | 54 | 1015.6 |
| 20260901144127 | 81 | 194 | 4.3 | 6.1 | 0.00 | 0.00 | 0.00 | 55 | 1015.5 |
| 20260901143622 | 81 | 191 | 0.0 | 7.8 | 0.00 | 0.00 | 0.00 | 56 | 1015.7 |
| 20260901143118 | 80 | 180 | 3.5 | 6.1 | 0.00 | 0.00 | 0.00 | 55 | 1015.6 |
| 20260901142614 | 80 | 152 | 6.1 | 6.1 | 0.00 | 0.00 | 0.00 | 56 | 1015.6 |
| 20260901142113 | 80 | 152 | 4.3 | 6.1 | 0.00 | 0.00 | 0.00 | 56 | 1015.8 |
| 20260901141608 | 79 | 178 | 2.6 | 4.3 | 0.00 | 0.00 | 0.00 | 57 | 1015.8 |
| 20260901141103 | 79 | 191 | 3.5 | 4.3 | 0.00 | 0.00 | 0.00 | 57 | 1015.8 |
| 20260901140601 | 78 | 223 | 3.5 | 3.5 | 0.00 | 0.00 | 0.00 | 57 | 1015.7 |
| 20260901140056 | 78 | 180 | 1.7 | 4.3 | 0.00 | 0.00 | 0.00 | 58 | 1015.8 |
| 20260901135555 | 77 | 175 | 0.9 | 4.3 | 0.00 | 0.00 | 0.00 | 59 | 1015.7 |
| 20260901135050 | 77 | 150 | 1.7 | 3.5 | 0.00 | 0.00 | 0.00 | 59 | 1015.6 |
| 20260901134546 | 77 | 163 | 2.6 | 3.5 | 0.00 | 0.00 | 0.00 | 59 | 1015.6 |
| 20260901134041 | 76 | 105 | 0.0 | 1.7 | 0.00 | 0.00 | 0.00 | 60 | 1015.6 |
| 20260901133540 | 75 | 162 | 0.0 | 1.7 | 0.00 | 0.00 | 0.00 | 61 | 1015.6 |
| 20260901133039 | 75 | 160 | 0.0 | 0.9 | 0.00 | 0.00 | 0.00 | 61 | 1015.3 |
| 20260901132539 | 74 | 160 | 0.0 | 0.9 | 0.00 | 0.00 | 0.00 | 61 | 1015.5 |
| 20260901132039 | 74 | 172 | 0.0 | 0.0 | 0.00 | 0.00 | 0.00 | 62 | 1015.4 |
| 20260901131533 | 74 | 172 | 0.0 | 1.7 | 0.00 | 0.00 | 0.00 | 63 | 1015.1 |
| 20260901131028 | 73 | 180 | 0.9 | 2.6 | 0.00 | 0.00 | 0.00 | 63 | 1015.4 |
| 20260901130528 | 73 | 148 | 1.7 | 1.7 | 0.00 | 0.00 | 0.00 | 63 | 1015.1 |
| 20260901130027 | 73 | 175 | 0.9 | 1.7 | 0.00 | 0.00 | 0.00 | 63 | 1015.4 |
| 20260901125525 | 73 | 180 | 0.0 | 1.7 | 0.00 | 0.00 | 0.00 | 63 | 1015.4 |
| 20260901125015 | 73 | 145 | 0.0 | 1.7 | 0.00 | 0.00 | 0.00 | 63 | 1015.3 |
| 20260901124510 | 73 | 180 | 0.9 | 1.7 | 0.00 | 0.00 | 0.00 | 63 | 1014.8 |
| 20260901124009 | 73 | 157 | 1.7 | 2.6 | 0.00 | 0.00 | 0.00 | 63 | 1014.7 |
| 20260901123505 | 73 | 174 | 0.9 | 3.5 | 0.00 | 0.00 | 0.00 | 63 | 1014.7 |
| 20260901123004 | 73 | 150 | 1.7 | 3.5 | 0.00 | 0.00 | 0.00 | 63 | 1014.5 |
| 20260901122503 | 72 | 147 | 2.6 | 2.6 | 0.00 | 0.00 | 0.00 | 63 | 1014.6 |
| 20260901121956 | 72 | 176 | 3.5 | 3.5 | 0.00 | 0.00 | 0.00 | 63 | 1014.4 |
| 20260901121452 | 73 | 169 | 3.5 | 4.3 | 0.00 | 0.00 | 0.00 | 63 | 1014.6 |
| 20260901120947 | 73 | 162 | 2.6 | 3.5 | 0.00 | 0.00 | 0.00 | 62 | 1014.3 |
| 20260901120447 | 73 | 147 | 1.7 | 3.5 | 0.00 | 0.00 | 0.00 | 62 | 1014.5 |
| 20260901115942 | 73 | 168 | 0.9 | 3.5 | 0.00 | 0.00 | 0.00 | 61 | 1014.4 |
| 20260901115437 | 73 | 178 | 2.6 | 3.5 | 0.00 | 0.00 | 0.00 | 61 | 1014.3 |
| 20260901114934 | 73 | 161 | 1.7 | 2.6 | 0.00 | 0.00 | 0.00 | 61 | 1014.2 |
| 20260901114429 | 73 | 185 | 0.9 | 2.6 | 0.00 | 0.00 | 0.00 | 62 | 1014.2 |
| 20260901113927 | 73 | 157 | 0.0 | 2.6 | 0.00 | 0.00 | 0.00 | 62 | 1014.3 |
| 20260901113427 | 73 | 151 | 0.0 | 1.7 | 0.00 | 0.00 | 0.00 | 62 | 1014.1 |
| 20260901112922 | 73 | 173 | 0.9 | 1.7 | 0.00 | 0.00 | 0.00 | 62 | 1014.2 |
| 20260901112417 | 73 | 151 | 0.0 | 1.7 | 0.00 | 0.00 | 0.00 | 62 | 1014.3 |
| 20260901111912 | 73 | 160 | 0.0 | 2.6 | 0.00 | 0.00 | 0.00 | 62 | 1013.9 |
| 20260901111410 | 73 | 180 | 0.9 | 2.6 | 0.00 | 0.00 | 0.00 | 62 | 1014.2 |
| 20260901110909 | 74 | 168 | 1.7 | 2.6 | 0.00 | 0.00 | 0.00 | 61 | 1014.1 |
| 20260901110405 | 74 | 172 | 1.7 | 2.6 | 0.00 | 0.00 | 0.00 | 60 | 1014.1 |
| 20260901105901 | 74 | 172 | 1.7 | 1.7 | 0.00 | 0.00 | 0.00 | 60 | 1013.9 |
| 20260901105356 | 75 | 168 | 0.9 | 2.6 | 0.00 | 0.00 | 0.00 | 59 | 1014.1 |
| 20260901104852 | 75 | 161 | 1.7 | 2.6 | 0.00 | 0.00 | 0.00 | 59 | 1013.8 |
| 20260901104347 | 75 | 151 | 0.0 | 2.6 | 0.00 | 0.00 | 0.00 | 59 | 1013.7 |
| 20260901103842 | 75 | 188 | 0.0 | 1.7 | 0.00 | 0.00 | 0.00 | 59 | 1014.2 |
| 20260901103336 | 75 | 195 | 0.0 | 1.7 | 0.00 | 0.00 | 0.00 | 59 | 1014.1 |
| 20260901102831 | 75 | 114 | 0.0 | 1.7 | 0.00 | 0.00 | 0.00 | 58 | 1014.1 |
| 20260901102326 | 75 | 157 | 0.9 | 1.7 | 0.00 | 0.00 | 0.00 | 59 | 1014.1 |
| 20260901101821 | 75 | 195 | 0.0 | 1.7 | 0.00 | 0.00 | 0.00 | 58 | 1013.8 |
| 20260901101320 | 75 | 157 | 0.0 | 2.6 | 0.00 | 0.00 | 0.00 | 58 | 1014.2 |
| 20260901100815 | 75 | 154 | 0.9 | 3.5 | 0.00 | 0.00 | 0.00 | 58 | 1013.8 |
| 20260901100310 | 75 | 194 | 0.9 | 3.5 | 0.00 | 0.00 | 0.00 | 58 | 1013.8 |
| 20260901095808 | 75 | 151 | 1.7 | 3.5 | 0.00 | 0.00 | 0.00 | 58 | 1013.7 |
| 20260901095307 | 75 | 145 | 0.0 | 2.6 | 0.00 | 0.00 | 0.00 | 58 | 1013.8 |
| 20260901094801 | 75 | 155 | 2.6 | 3.5 | 0.00 | 0.00 | 0.00 | 58 | 1013.5 |
| 20260901094255 | 75 | 150 | 1.7 | 4.3 | 0.00 | 0.00 | 0.00 | 59 | 1013.6 |
| 20260901093750 | 75 | 186 | 2.6 | 3.5 | 0.00 | 0.00 | 0.00 | 58 | 1013.9 |
| 20260901093249 | 75 | 173 | 0.0 | 1.7 | 0.00 | 0.00 | 0.00 | 58 | 1013.6 |
| 20260901092746 | 76 | 157 | 0.9 | 2.6 | 0.00 | 0.00 | 0.00 | 58 | 1013.6 |
| 20260901092241 | 76 | 191 | 1.7 | 5.2 | 0.00 | 0.00 | 0.00 | 58 | 1013.6 |
| 20260901091736 | 76 | 162 | 2.6 | 4.3 | 0.00 | 0.00 | 0.00 | 58 | 1013.7 |
| 20260901091232 | 76 | 160 | 3.5 | 4.3 | 0.00 | 0.00 | 0.00 | 58 | 1013.9 |
| 20260901090726 | 76 | 180 | 2.6 | 4.3 | 0.00 | 0.00 | 0.00 | 57 | 1013.8 |
| 20260901090222 | 76 | 175 | 4.3 | 4.3 | 0.00 | 0.00 | 0.00 | 57 | 1014.1 |
| 20260901085718 | 76 | 145 | 0.9 | 5.2 | 0.00 | 0.00 | 0.00 | 57 | 1013.8 |
| 20260901085213 | 77 | 180 | 2.6 | 4.3 | 0.00 | 0.00 | 0.00 | 56 | 1013.7 |
| 20260901084709 | 77 | 168 | 4.3 | 6.1 | 0.00 | 0.00 | 0.00 | 56 | 1013.5 |
| 20260901084205 | 76 | 159 | 4.3 | 5.2 | 0.00 | 0.00 | 0.00 | 56 | 1013.7 |
| 20260901083659 | 77 | 165 | 4.3 | 4.3 | 0.00 | 0.00 | 0.00 | 56 | 1013.9 |
| 20260901083158 | 77 | 177 | 2.6 | 3.5 | 0.00 | 0.00 | 0.00 | 55 | 1013.5 |
| 20260901082652 | 77 | 180 | 2.6 | 4.3 | 0.00 | 0.00 | 0.00 | 54 | 1013.7 |
| 20260901082148 | 78 | 180 | 2.6 | 4.3 | 0.00 | 0.00 | 0.00 | 53 | 1013.7 |
| 20260901081643 | 78 | 158 | 3.5 | 4.3 | 0.00 | 0.00 | 0.00 | 53 | 1013.8 |
| 20260901081142 | 78 | 188 | 1.7 | 5.2 | 0.00 | 0.00 | 0.00 | 52 | 1013.6 |
| 20260901080637 | 78 | 180 | 3.5 | 4.3 | 0.00 | 0.00 | 0.00 | 52 | 1013.9 |
| 20260901080136 | 78 | 189 | 2.6 | 4.3 | 0.00 | 0.00 | 0.00 | 51 | 1013.4 |
| 20260901075631 | 78 | 190 | 4.3 | 4.3 | 0.00 | 0.00 | 0.00 | 51 | 1013.6 |
| 20260901075131 | 78 | 154 | 1.7 | 3.5 | 0.00 | 0.00 | 0.00 | 51 | 1013.6 |
| 20260901074630 | 78 | 165 | 0.0 | 1.7 | 0.00 | 0.00 | 0.00 | 52 | 1013.8 |
| 20260901074125 | 78 | 261 | 0.0 | 0.9 | 0.00 | 0.00 | 0.00 | 51 | 1013.7 |
| 20260901073622 | 79 | 206 | 0.0 | 2.6 | 0.00 | 0.00 | 0.00 | 49 | 1013.8 |
| 20260901073117 | 79 | 166 | 1.7 | 2.6 | 0.00 | 0.00 | 0.00 | 50 | 1013.7 |
| 20260901072613 | 78 | 154 | 0.0 | 1.7 | 0.00 | 0.00 | 0.00 | 51 | 1013.8 |
| 20260901072107 | 78 | 78 | 0.0 | 1.7 | 0.00 | 0.00 | 0.00 | 51 | 1013.7 |
| 20260901071602 | 78 | 105 | 0.9 | 1.7 | 0.00 | 0.00 | 0.00 | 50 | 1013.5 |
| 20260901071101 | 78 | 140 | 0.0 | 1.7 | 0.00 | 0.00 | 0.00 | 50 | 1013.7 |
| 20260901070555 | 78 | 195 | 0.0 | 1.7 | 0.00 | 0.00 | 0.00 | 49 | 1013.8 |
| 20260901070051 | 79 | 90 | 0.0 | 0.9 | 0.00 | 0.00 | 0.00 | 49 | 1013.6 |
| 20260901065545 | 79 | 157 | 0.0 | 1.7 | 0.00 | 0.00 | 0.00 | 49 | 1013.5 |
| 20260901065045 | 79 | 173 | 0.0 | 0.9 | 0.00 | 0.00 | 0.00 | 48 | 1013.8 |
| 20260901064542 | 80 | 120 | 0.0 | 2.6 | 0.00 | 0.00 | 0.00 | 48 | 1013.8 |
| 20260901064038 | 81 | 176 | 1.7 | 3.5 | 0.00 | 0.00 | 0.00 | 48 | 1013.8 |
| 20260901063535 | 81 | 162 | 0.9 | 4.3 | 0.00 | 0.00 | 0.00 | 47 | 1014.1 |
| 20260901063031 | 82 | 180 | 0.9 | 1.7 | 0.00 | 0.00 | 0.00 | 46 | 1014.1 |
| 20260901062526 | 82 | 174 | 0.9 | 2.6 | 0.00 | 0.00 | 0.00 | 46 | 1014.1 |
| 20260901062022 | 82 | 194 | 2.6 | 6.1 | 0.00 | 0.00 | 0.00 | 45 | 1013.6 |
| 20260901061518 | 82 | 192 | 3.5 | 4.3 | 0.00 | 0.00 | 0.00 | 45 | 1013.6 |
| 20260901061013 | 83 | 169 | 4.3 | 6.1 | 0.00 | 0.00 | 0.00 | 45 | 1013.5 |
| 20260901060513 | 83 | 198 | 2.6 | 6.1 | 0.00 | 0.00 | 0.00 | 45 | 1013.5 |
| 20260901060008 | 83 | 195 | 2.6 | 5.2 | 0.00 | 0.00 | 0.00 | 44 | 1013.5 |
| 20260901055504 | 84 | 158 | 2.6 | 6.1 | 0.00 | 0.00 | 0.00 | 44 | 1013.6 |
| 20260901055001 | 84 | 180 | 2.6 | 6.1 | 0.00 | 0.00 | 0.00 | 44 | 1013.5 |
| 20260901054457 | 84 | 159 | 7.0 | 8.7 | 0.00 | 0.00 | 0.00 | 44 | 1013.4 |
| 20260901053953 | 84 | 156 | 1.7 | 9.6 | 0.00 | 0.00 | 0.00 | 43 | 1013.5 |
| 20260901053448 | 85 | 162 | 5.2 | 8.7 | 0.00 | 0.00 | 0.00 | 44 | 1013.2 |
| 20260901052944 | 85 | 181 | 6.1 | 10.4 | 0.00 | 0.00 | 0.00 | 44 | 1013.2 |
| 20260901052439 | 85 | 190 | 4.3 | 7.0 | 0.00 | 0.00 | 0.00 | 45 | 1013.1 |
| 20260901051937 | 85 | 155 | 4.3 | 7.8 | 0.00 | 0.00 | 0.00 | 45 | 1013.1 |
| 20260901051433 | 85 | 167 | 5.2 | 7.0 | 0.00 | 0.00 | 0.00 | 44 | 1013.1 |
| 20260901050927 | 85 | 195 | 4.3 | 7.8 | 0.00 | 0.00 | 0.00 | 44 | 1013.1 |
| 20260901050423 | 86 | 180 | 6.1 | 8.7 | 0.00 | 0.00 | 0.00 | 44 | 1013.1 |
| 20260901045923 | 86 | 181 | 5.2 | 8.7 | 0.00 | 0.00 | 0.00 | 44 | 1013.1 |
| 20260901045418 | 86 | 180 | 6.1 | 7.8 | 0.00 | 0.00 | 0.00 | 43 | 1012.7 |
| 20260901044913 | 86 | 180 | 5.2 | 8.7 | 0.00 | 0.00 | 0.00 | 43 | 1013.0 |
| 20260901044409 | 87 | 161 | 8.7 | 13.0 | 0.00 | 0.00 | 0.00 | 43 | 1013.0 |
| 20260901043905 | 87 | 163 | 6.1 | 10.4 | 0.00 | 0.00 | 0.00 | 42 | 1013.1 |
| 20260901043401 | 87 | 169 | 4.3 | 11.3 | 0.00 | 0.00 | 0.00 | 42 | 1013.0 |
| 20260901042901 | 87 | 165 | 7.0 | 9.6 | 0.00 | 0.00 | 0.00 | 41 | 1012.9 |
| 20260901042355 | 88 | 212 | 6.1 | 16.5 | 0.00 | 0.00 | 0.00 | 40 | 1013.1 |
| 20260901041851 | 88 | 146 | 6.1 | 14.8 | 0.00 | 0.00 | 0.00 | 38 | 1012.9 |
| 20260901041345 | 89 | 162 | 6.1 | 13.0 | 0.00 | 0.00 | 0.00 | 38 | 1012.7 |
| 20260901040839 | 89 | 159 | 8.7 | 17.4 | 0.00 | 0.00 | 0.00 | 38 | 1012.9 |
| 20260901040339 | 89 | 167 | 8.7 | 18.2 | 0.00 | 0.00 | 0.00 | 37 | 1012.4 |
| 20260901035833 | 89 | 182 | 5.2 | 12.2 | 0.00 | 0.00 | 0.00 | 36 | 1012.5 |
| 20260901035331 | 89 | 151 | 6.1 | 12.2 | 0.00 | 0.00 | 0.00 | 36 | 1012.5 |
| 20260901034824 | 89 | 182 | 7.0 | 11.3 | 0.00 | 0.00 | 0.00 | 35 | 1012.4 |
| 20260901034319 | 90 | 162 | 2.6 | 7.8 | 0.00 | 0.00 | 0.00 | 34 | 1012.4 |
| 20260901033814 | 89 | 189 | 2.6 | 10.4 | 0.00 | 0.00 | 0.00 | 34 | 1012.3 |
| 20260901033313 | 89 | 173 | 3.5 | 7.8 | 0.00 | 0.00 | 0.00 | 34 | 1012.3 |
| 20260901032812 | 89 | 170 | 3.5 | 7.8 | 0.00 | 0.00 | 0.00 | 34 | 1012.0 |
| 20260901032311 | 90 | 170 | 4.3 | 7.0 | 0.00 | 0.00 | 0.00 | 33 | 1011.9 |
| 20260901031806 | 90 | 151 | 4.3 | 8.7 | 0.00 | 0.00 | 0.00 | 33 | 1012.2 |
| 20260901031302 | 90 | 157 | 3.5 | 7.8 | 0.00 | 0.00 | 0.00 | 33 | 1012.0 |
| 20260901030802 | 90 | 182 | 7.8 | 7.8 | 0.00 | 0.00 | 0.00 | 33 | 1011.9 |
| 20260901030258 | 90 | 171 | 3.5 | 6.1 | 0.00 | 0.00 | 0.00 | 32 | 1012.0 |
| 20260901025756 | 90 | 111 | 4.3 | 7.0 | 0.00 | 0.00 | 0.00 | 32 | 1011.4 |
| 20260901025251 | 90 | 163 | 2.6 | 7.0 | 0.00 | 0.00 | 0.00 | 32 | 1011.8 |
| 20260901024746 | 90 | 120 | 2.6 | 5.2 | 0.00 | 0.00 | 0.00 | 32 | 1011.5 |
| 20260901024245 | 90 | 158 | 3.5 | 6.1 | 0.00 | 0.00 | 0.00 | 32 | 1011.4 |
| 20260901023743 | 90 | 166 | 5.2 | 5.2 | 0.00 | 0.00 | 0.00 | 32 | 1011.1 |
| 20260901023239 | 91 | 158 | 5.2 | 6.1 | 0.00 | 0.00 | 0.00 | 32 | 1011.1 |
| 20260901022734 | 90 | 196 | 2.6 | 6.1 | 0.00 | 0.00 | 0.00 | 31 | 1010.7 |
| 20260901022229 | 90 | 153 | 3.5 | 4.3 | 0.00 | 0.00 | 0.00 | 32 | 1010.8 |
| 20260901021725 | 90 | 156 | 1.7 | 3.5 | 0.00 | 0.00 | 0.00 | 31 | 1010.4 |
| 20260901021220 | 90 | 152 | 1.7 | 4.3 | 0.00 | 0.00 | 0.00 | 31 | 1010.3 |
| 20260901020715 | 90 | 168 | 3.5 | 4.3 | 0.00 | 0.00 | 0.00 | 31 | 1010.3 |
| 20260901020211 | 91 | 170 | 1.7 | 3.5 | 0.00 | 0.00 | 0.00 | 31 | 1010.2 |
| 20260901015706 | 91 | 190 | 1.7 | 4.3 | 0.00 | 0.00 | 0.00 | 30 | 1010.0 |
| 20260901015201 | 91 | 151 | 2.6 | 3.5 | 0.00 | 0.00 | 0.00 | 30 | 1009.9 |
| 20260901014655 | 92 | 150 | 2.6 | 3.5 | 0.00 | 0.00 | 0.00 | 30 | 1009.9 |
| 20260901014151 | 92 | 114 | 0.0 | 3.5 | 0.00 | 0.00 | 0.00 | 30 | 1009.7 |
| 20260901013647 | 92 | 163 | 2.6 | 4.3 | 0.00 | 0.00 | 0.00 | 30 | 1009.8 |
| 20260901013142 | 93 | 185 | 1.7 | 4.3 | 0.00 | 0.00 | 0.00 | 30 | 1009.9 |
| 20260901012637 | 94 | 156 | 3.5 | 5.2 | 0.00 | 0.00 | 0.00 | 29 | 1009.8 |
| 20260901012132 | 94 | 146 | 1.7 | 4.3 | 0.00 | 0.00 | 0.00 | 29 | 1009.7 |
| 20260901011628 | 94 | 152 | 1.7 | 6.1 | 0.00 | 0.00 | 0.00 | 29 | 1009.7 |
| 20260901011126 | 95 | 185 | 2.6 | 6.1 | 0.00 | 0.00 | 0.00 | 29 | 1009.7 |
| 20260901010622 | 95 | 156 | 3.5 | 7.8 | 0.00 | 0.00 | 0.00 | 28 | 1009.8 |
| 20260901010121 | 95 | 167 | 2.6 | 5.2 | 0.00 | 0.00 | 0.00 | 28 | 1009.6 |
| 20260901005620 | 96 | 157 | 1.7 | 3.5 | 0.00 | 0.00 | 0.00 | 27 | 1009.7 |
| 20260901005116 | 96 | 177 | 5.2 | 6.1 | 0.00 | 0.00 | 0.00 | 27 | 1009.7 |
| 20260901004615 | 97 | 180 | 1.7 | 4.3 | 0.00 | 0.00 | 0.00 | 26 | 1009.5 |
| 20260901004110 | 97 | 206 | 1.7 | 6.1 | 0.00 | 0.00 | 0.00 | 26 | 1009.9 |
| 20260901003605 | 97 | 176 | 1.7 | 7.0 | 0.00 | 0.00 | 0.00 | 27 | 1009.7 |
| 20260901003103 | 98 | 160 | 0.9 | 3.5 | 0.00 | 0.00 | 0.00 | 26 | 1009.7 |
| 20260901002558 | 98 | 150 | 6.1 | 6.1 | 0.00 | 0.00 | 0.00 | 26 | 1009.8 |
| 20260901002053 | 98 | 150 | 3.5 | 8.7 | 0.00 | 0.00 | 0.00 | 27 | 1009.7 |
| 20260901001553 | 98 | 179 | 4.3 | 7.8 | 0.00 | 0.00 | 0.00 | 27 | 1009.7 |
| 20260901001048 | 98 | 103 | 1.7 | 4.3 | 0.00 | 0.00 | 0.00 | 26 | 1009.8 |
| 20260901000543 | 98 | 176 | 5.2 | 7.8 | 0.00 | 0.00 | 0.00 | 26 | 1009.7 |
| 20260901000039 | 99 | 81 | 0.0 | 5.2 | 0.00 | 0.00 | 0.00 | 25 | 1009.7 |
| 20260831235533 | 98 | 147 | 2.6 | 8.7 | 0.00 | 0.00 | 0.00 | 25 | 1009.8 |
| 20260831235029 | 100 | 164 | 6.1 | 8.7 | 0.00 | 0.00 | 0.00 | 25 | 1009.7 |
| 20260831234528 | 100 | 133 | 3.5 | 6.1 | 0.00 | 0.00 | 0.00 | 24 | 1009.6 |
| 20260831234025 | 99 | 180 | 2.6 | 7.8 | 0.00 | 0.00 | 0.00 | 24 | 1009.7 |
| 20260831233519 | 100 | 165 | 2.6 | 6.1 | 0.00 | 0.00 | 0.00 | 24 | 1009.6 |
| 20260831233015 | 100 | 148 | 1.7 | 6.1 | 0.00 | 0.00 | 0.00 | 24 | 1009.4 |
| 20260831232510 | 100 | 102 | 4.3 | 9.6 | 0.00 | 0.00 | 0.00 | 24 | 1009.6 |
| 20260831232006 | 100 | 180 | 1.7 | 7.8 | 0.00 | 0.00 | 0.00 | 24 | 1009.6 |
| 20260831231502 | 100 | 163 | 4.3 | 8.7 | 0.00 | 0.00 | 0.00 | 24 | 1009.5 |
| 20260831230957 | 99 | 147 | 2.6 | 6.1 | 0.00 | 0.00 | 0.00 | 25 | 1009.7 |
| 20260831230453 | 99 | 190 | 4.3 | 11.3 | 0.00 | 0.00 | 0.00 | 25 | 1009.9 |
| 20260831225947 | 99 | 176 | 3.5 | 9.6 | 0.00 | 0.00 | 0.00 | 24 | 1009.9 |
| 20260831225443 | 100 | 169 | 2.6 | 7.0 | 0.00 | 0.00 | 0.00 | 24 | 1009.7 |
| 20260831224938 | 99 | 140 | 2.6 | 16.5 | 0.00 | 0.00 | 0.00 | 24 | 1009.6 |
| 20260831224437 | 100 | 133 | 2.6 | 10.4 | 0.00 | 0.00 | 0.00 | 24 | 1009.8 |
| 20260831223932 | 101 | 58 | 3.5 | 6.1 | 0.00 | 0.00 | 0.00 | 24 | 1009.8 |
| 20260831223428 | 101 | 204 | 2.6 | 7.0 | 0.00 | 0.00 | 0.00 | 25 | 1010.0 |
| 20260831222924 | 101 | 142 | 2.6 | 7.8 | 0.00 | 0.00 | 0.00 | 25 | 1009.8 |
| 20260831222420 | 101 | 190 | 0.0 | 6.1 | 0.00 | 0.00 | 0.00 | 24 | 1010.2 |
| 20260831221915 | 100 | 148 | 2.6 | 7.0 | 0.00 | 0.00 | 0.00 | 25 | 1010.0 |
| 20260831221411 | 99 | 188 | 5.2 | 7.8 | 0.00 | 0.00 | 0.00 | 25 | 1010.2 |
| 20260831220906 | 99 | 183 | 2.6 | 6.1 | 0.00 | 0.00 | 0.00 | 24 | 1010.2 |
| 20260831220401 | 100 | 174 | 2.6 | 6.1 | 0.00 | 0.00 | 0.00 | 23 | 1010.4 |
| 20260831215856 | 100 | 160 | 2.6 | 10.4 | 0.00 | 0.00 | 0.00 | 23 | 1010.4 |
| 20260831215352 | 100 | 154 | 2.6 | 6.1 | 0.00 | 0.00 | 0.00 | 21 | 1010.6 |
| 20260831214848 | 99 | 176 | 6.1 | 8.7 | 0.00 | 0.00 | 0.00 | 24 | 1010.8 |
| 20260831214345 | 100 | 180 | 3.5 | 11.3 | 0.00 | 0.00 | 0.00 | 25 | 1010.8 |
| 20260831213845 | 100 | 179 | 5.2 | 7.0 | 0.00 | 0.00 | 0.00 | 25 | 1011.0 |
| 20260831213342 | 100 | 126 | 0.0 | 7.8 | 0.00 | 0.00 | 0.00 | 25 | 1010.9 |
| 20260831212837 | 101 | 210 | 1.7 | 11.3 | 0.00 | 0.00 | 0.00 | 26 | 1011.3 |
| 20260831212334 | 101 | 108 | 7.8 | 7.8 | 0.00 | 0.00 | 0.00 | 26 | 1011.1 |
| 20260831211832 | 101 | 90 | 0.0 | 1.7 | 0.00 | 0.00 | 0.00 | 25 | 1010.9 |
| 20260831211328 | 98 | 186 | 3.5 | 9.6 | 0.00 | 0.00 | 0.00 | 27 | 1011.3 |
| 20260831210827 | 99 | 209 | 0.0 | 6.1 | 0.00 | 0.00 | 0.00 | 27 | 1011.3 |
| 20260831210323 | 102 | 65 | 1.7 | 3.5 | 0.00 | 0.00 | 0.00 | 24 | 1011.4 |
| 20260831205823 | 101 | 181 | 4.3 | 4.3 | 0.00 | 0.00 | 0.00 | 25 | 1011.6 |
| 20260831205319 | 100 | 168 | 4.3 | 7.8 | 0.00 | 0.00 | 0.00 | 26 | 1011.6 |
| 20260831204814 | 100 | 142 | 2.6 | 7.0 | 0.00 | 0.00 | 0.00 | 26 | 1011.9 |
| 20260831204313 | 100 | 96 | 2.6 | 6.1 | 0.00 | 0.00 | 0.00 | 27 | 1011.5 |
| 20260831203812 | 100 | 165 | 2.6 | 7.0 | 0.00 | 0.00 | 0.00 | 27 | 1011.6 |
| 20260831203307 | 99 | 154 | 2.6 | 3.5 | 0.00 | 0.00 | 0.00 | 28 | 1012.0 |
| 20260831202805 | 100 | 123 | 1.7 | 3.5 | 0.00 | 0.00 | 0.00 | 27 | 1012.2 |
| 20260831202300 | 98 | 220 | 2.6 | 8.7 | 0.00 | 0.00 | 0.00 | 29 | 1012.1 |
| 20260831201754 | 99 | 194 | 3.5 | 4.3 | 0.00 | 0.00 | 0.00 | 28 | 1012.1 |
| 20260831201253 | 99 | 180 | 1.7 | 4.3 | 0.00 | 0.00 | 0.00 | 29 | 1012.1 |
| 20260831200749 | 98 | 174 | 3.5 | 9.6 | 0.00 | 0.00 | 0.00 | 29 | 1012.2 |
| 20260831200244 | 98 | 162 | 5.2 | 6.1 | 0.00 | 0.00 | 0.00 | 29 | 1012.4 |
| 20260831195739 | 98 | 195 | 0.9 | 4.3 | 0.00 | 0.00 | 0.00 | 29 | 1012.4 |
| 20260831195235 | 97 | 173 | 4.3 | 6.1 | 0.00 | 0.00 | 0.00 | 29 | 1012.6 |
| 20260831194730 | 98 | 199 | 3.5 | 7.0 | 0.00 | 0.00 | 0.00 | 29 | 1012.7 |
| 20260831194226 | 99 | 129 | 1.7 | 4.3 | 0.00 | 0.00 | 0.00 | 28 | 1012.9 |
| 20260831193719 | 97 | 139 | 3.5 | 7.0 | 0.00 | 0.00 | 0.00 | 30 | 1012.9 |
| 20260831193215 | 97 | 185 | 2.6 | 7.8 | 0.00 | 0.00 | 0.00 | 29 | 1013.0 |
| 20260831192710 | 96 | 257 | 0.9 | 7.0 | 0.00 | 0.00 | 0.00 | 31 | 1012.6 |
| 20260831192205 | 98 | 183 | 4.3 | 7.0 | 0.00 | 0.00 | 0.00 | 30 | 1013.0 |
| 20260831191701 | 96 | 150 | 3.5 | 5.2 | 0.00 | 0.00 | 0.00 | 31 | 1013.0 |
| 20260831191157 | 95 | 175 | 7.8 | 11.3 | 0.00 | 0.00 | 0.00 | 32 | 1013.1 |
| 20260831190652 | 97 | 168 | 1.7 | 7.8 | 0.00 | 0.00 | 0.00 | 32 | 1012.9 |
| 20260831190151 | 96 | 182 | 2.6 | 7.8 | 0.00 | 0.00 | 0.00 | 32 | 1013.0 |
| 20260831185646 | 95 | 157 | 3.5 | 6.1 | 0.00 | 0.00 | 0.00 | 34 | 1013.1 |